Location: Gugi
(45.4667°N, 11.1000°E)
Time: 12:45:44
(UTC+00:00)

CENTAUR R/B - Pass Details

Date: 17 November 2019
Orbit: 779 x 1409 km, 63.4° (Epoch: 01 December)

Event Time Altitude Azimuth Distance (km) Brightness Sun altitude
Rises 19:02:33 0° 320° (NW) 4,045 6.3 -34.7°
Reaches altitude 10° 19:05:21 10° 328° (NNW) 3,168 5.6 -35.2°
Enters shadow 19:10:26 36° 2° (N) 1,941 4.0 -36.1°
